TimeMDT,TemperatureF,Dew PointF,Humidity,Sea Level PressureIn,VisibilityMPH,Wind Direction,Wind SpeedMPH,Gust SpeedMPH,PrecipitationIn,Events,Conditions,WindDirDegrees,DateUTC
12:15 AM,64.4,48.2,56,30.09,10.0,East,8.1,-,N/A,,Clear,80,2013-08-10 06:15:00
12:35 AM,60.8,48.2,63,30.09,10.0,Calm,Calm,-,N/A,,Clear,0,2013-08-10 06:35:00
12:55 AM,62.6,46.4,55,30.09,10.0,SW,5.8,-,N/A,,Clear,230,2013-08-10 06:55:00
1:15 AM,66.2,50.0,56,30.09,10.0,WSW,9.2,-,N/A,,Clear,240,2013-08-10 07:15:00
1:35 AM,68.0,51.8,56,30.09,10.0,West,9.2,-,N/A,,Clear,270,2013-08-10 07:35:00
1:55 AM,68.0,48.2,49,30.10,10.0,SW,6.9,-,N/A,,Clear,220,2013-08-10 07:55:00
2:15 AM,66.2,46.4,49,30.10,10.0,SSW,5.8,-,N/A,,Clear,210,2013-08-10 08:15:00
2:35 AM,62.6,48.2,59,30.11,10.0,SSE,5.8,-,N/A,,Clear,160,2013-08-10 08:35:00
2:55 AM,60.8,46.4,59,30.11,10.0,Calm,Calm,-,N/A,,Clear,0,2013-08-10 08:55:00
3:15 AM,57.2,48.2,72,30.11,10.0,NNE,4.6,-,N/A,,Clear,30,2013-08-10 09:15:00
3:35 AM,57.2,48.2,72,30.11,10.0,East,3.5,-,N/A,,Clear,90,2013-08-10 09:35:00
3:55 AM,59.0,46.4,63,30.11,10.0,Calm,Calm,-,N/A,,Clear,0,2013-08-10 09:55:00
4:15 AM,55.4,48.2,77,30.11,10.0,Calm,Calm,-,N/A,,Clear,0,2013-08-10 10:15:00
4:35 AM,59.0,48.2,67,30.11,10.0,West,5.8,-,N/A,,Clear,270,2013-08-10 10:35:00
4:55 AM,62.6,44.6,52,30.12,10.0,West,3.5,-,N/A,,Clear,260,2013-08-10 10:55:00
5:15 AM,59.0,44.6,59,30.13,10.0,Calm,Calm,-,N/A,,Clear,0,2013-08-10 11:15:00
5:35 AM,57.2,46.4,67,30.13,10.0,ESE,3.5,-,N/A,,Clear,110,2013-08-10 11:35:00
5:55 AM,57.2,48.2,72,30.11,10.0,NE,9.2,-,N/A,,Partly Cloudy,40,2013-08-10 11:55:00
6:15 AM,59.0,44.6,59,30.12,10.0,West,9.2,-,N/A,,Clear,280,2013-08-10 12:15:00
6:35 AM,62.6,44.6,52,30.12,10.0,WSW,6.9,-,N/A,,Clear,250,2013-08-10 12:35:00
7:51 AM,64.4,46.4,52,30.15,15.0,SSW,5.8,-,N/A,,Scattered Clouds,200,2013-08-10 13:51:00
8:53 AM,66.2,48.2,52,30.16,15.0,SSW,10.4,-,N/A,,Scattered Clouds,200,2013-08-10 14:53:00
9:47 AM,71.6,48.2,43,30.18,15.0,Calm,Calm,-,N/A,,Scattered Clouds,0,2013-08-10 15:47:00
10:47 AM,77.0,48.2,36,30.17,15.0,SW,5.8,-,N/A,,Scattered Clouds,220,2013-08-10 16:47:00
11:59 AM,80.6,48.2,32,30.16,15.0,Variable,5.8,-,N/A,,Mostly Cloudy,0,2013-08-10 17:59:00
12:58 PM,86.0,41.0,20,30.14,15.0,Variable,5.8,-,N/A,,Mostly Cloudy,0,2013-08-10 18:58:00
1:49 PM,87.8,37.4,17,30.11,15.0,ESE,4.6,-,N/A,,Mostly Cloudy,120,2013-08-10 19:49:00
2:50 PM,89.6,37.4,16,30.09,15.0,Variable,5.8,-,N/A,,Mostly Cloudy,0,2013-08-10 20:50:00
3:50 PM,84.2,42.8,23,30.10,15.0,SE,16.1,29.9,N/A,,Mostly Cloudy,130,2013-08-10 21:50:00
4:50 PM,82.4,44.6,26,30.09,15.0,SE,13.8,-,N/A,,Mostly Cloudy,140,2013-08-10 22:50:00
5:50 PM,82.4,44.6,26,30.08,15.0,SE,11.5,-,N/A,,Mostly Cloudy,130,2013-08-10 23:50:00
6:50 PM,84.2,42.8,23,30.06,15.0,ESE,16.1,-,N/A,,Mostly Cloudy,120,2013-08-11 00:50:00
7:50 PM,80.6,42.8,26,30.07,15.0,SE,16.1,-,N/A,,Mostly Cloudy,140,2013-08-11 01:50:00
8:50 PM,77.0,41.0,28,30.09,15.0,SE,11.5,-,N/A,,Mostly Cloudy,130,2013-08-11 02:50:00
9:15 PM,75.2,42.8,31,30.09,10.0,South,10.4,-,N/A,,Clear,180,2013-08-11 03:15:00
9:35 PM,77.0,39.2,26,30.09,10.0,SSE,16.1,20.7,N/A,,Clear,160,2013-08-11 03:35:00
9:55 PM,77.0,41.0,28,30.09,10.0,SSE,17.3,-,N/A,,Clear,150,2013-08-11 03:55:00
10:15 PM,75.2,42.8,31,30.10,10.0,SE,13.8,-,N/A,,Clear,140,2013-08-11 04:15:00
10:35 PM,75.2,41.0,29,30.11,10.0,SE,12.7,-,N/A,,Clear,140,2013-08-11 04:35:00
10:55 PM,73.4,42.8,33,30.11,10.0,SE,11.5,-,N/A,,Clear,140,2013-08-11 04:55:00
11:15 PM,73.4,42.8,33,30.11,10.0,SE,9.2,-,N/A,,Clear,140,2013-08-11 05:15:00
11:35 PM,73.4,42.8,33,30.11,10.0,SE,9.2,-,N/A,,Clear,140,2013-08-11 05:35:00
11:55 PM,73.4,42.8,33,30.11,10.0,SE,10.4,-,N/A,,Clear,130,2013-08-11 05:55:00